TimeMST,TemperatureF,Dew PointF,Humidity,Sea Level PressureIn,VisibilityMPH,Wind Direction,Wind SpeedMPH,Gust SpeedMPH,PrecipitationIn,Events,Conditions,WindDirDegrees,DateUTC
12:55 AM,30.9,18.0,59,30.13,10.0,WSW,11.5,-,N/A,,Clear,250,2012-12-04 07:55:00
1:55 AM,30.0,18.0,61,30.16,10.0,West,11.5,-,N/A,,Clear,260,2012-12-04 08:55:00
2:55 AM,27.0,17.1,66,30.17,10.0,West,6.9,-,N/A,,Clear,280,2012-12-04 09:55:00
3:55 AM,28.0,18.0,66,30.19,10.0,West,11.5,-,N/A,,Clear,260,2012-12-04 10:55:00
4:55 AM,27.0,17.1,66,30.22,10.0,West,10.4,-,N/A,,Clear,260,2012-12-04 11:55:00
5:55 AM,28.0,18.0,66,30.24,10.0,West,11.5,-,N/A,,Clear,260,2012-12-04 12:55:00
6:55 AM,28.0,18.0,66,30.26,10.0,West,11.5,-,N/A,,Clear,260,2012-12-04 13:55:00
7:55 AM,28.9,19.0,67,30.27,10.0,West,10.4,-,N/A,,Clear,270,2012-12-04 14:55:00
8:55 AM,36.0,21.9,57,30.28,10.0,West,12.7,-,N/A,,Clear,260,2012-12-04 15:55:00
9:55 AM,43.0,24.1,47,30.28,10.0,West,11.5,-,N/A,,Clear,260,2012-12-04 16:55:00
10:55 AM,48.9,21.0,33,30.26,10.0,WSW,10.4,-,N/A,,Clear,250,2012-12-04 17:55:00
11:55 AM,53.1,19.0,26,30.21,10.0,SW,8.1,-,N/A,,Clear,220,2012-12-04 18:55:00
12:55 PM,55.0,19.0,24,30.18,10.0,SSW,10.4,-,N/A,,Clear,200,2012-12-04 19:55:00
1:55 PM,54.0,18.0,24,30.15,10.0,SSW,9.2,-,N/A,,Clear,200,2012-12-04 20:55:00
2:55 PM,52.0,18.0,26,30.13,10.0,SSE,8.1,-,N/A,,Clear,150,2012-12-04 21:55:00
3:55 PM,46.9,18.0,32,30.14,10.0,ESE,5.8,-,N/A,,Clear,120,2012-12-04 22:55:00
4:55 PM,37.9,18.0,45,30.14,10.0,East,5.8,-,N/A,,Clear,90,2012-12-04 23:55:00
5:55 PM,43.0,19.0,38,30.13,10.0,ESE,9.2,-,N/A,,Clear,110,2012-12-05 00:55:00
6:55 PM,36.0,19.9,52,30.14,10.0,East,10.4,-,N/A,,Clear,90,2012-12-05 01:55:00
7:55 PM,36.0,21.0,55,30.12,10.0,East,11.5,-,N/A,,Clear,90,2012-12-05 02:55:00
8:55 PM,32.0,19.9,61,30.11,10.0,East,8.1,-,N/A,,Clear,80,2012-12-05 03:55:00
9:55 PM,28.0,19.0,69,30.09,10.0,ENE,6.9,-,N/A,,Clear,70,2012-12-05 04:55:00
10:55 PM,27.0,19.0,72,30.09,10.0,Calm,Calm,-,N/A,,Clear,0,2012-12-05 05:55:00
11:55 PM,27.0,19.0,72,30.06,10.0,Calm,Calm,-,N/A,,Clear,0,2012-12-05 06:55:00